User: anonymous   Login
Location: Unspecified
(0.0000°N, 0.0000°E)
Time: 21:08:06
(UTC+00:00)
Language:

STARLINK-30915 - Orbit

View from above orbital plane
View from above orbital plane
View from above satellite
View from above satellite

Ground track
Ground track

The orbit is defined by the following mean orbital elements,

1 58380U          26145.35197671 +.00000000 +00000-0 +62495-4 0 00004
2 58380  53.1614 275.2497 0000977  92.1640 267.9473 15.30195678    00
Epoch (UTC): 25 May 2026 08:26:50
Eccentricity: 0.0000977
inclination: 53.1614°
perigee height: 475 km
apogee height: 476 km
right ascension of ascending node: 275.2497°
argument of perigee: 92.1640°
revolutions per day: 15.30195678
mean anomaly at epoch: 267.9473°

The dashed part of the orbit path shows where the satellite is in the earth's shadow,  

DLR